SIA319 EGLL-WSSS

Flight info

Callsign SIA319
Flight time N/A
Altitude 33000
Route DET L6 DVR L9 KONAN UL607 MATUG DCT GUBAX DCT KOMIB DCT TONSU Z650 VEMUT DCT PEPIK/N0487F350 DCT BALAP DCT NARKA DCT DENAK DCT DINRO N743 UDROS UM859 KARDE UL851 TBN UM11 REBLO P130 BODKA/N0488F370 P130 MAMED B449 RANAH L750 ZB G202 RK P628 IBANI L510 GURVI T1 OGUNA/N0494F390 T1 BBS L759 PUT B579 VPL Y503 RINBA Y507 MAKNA Y511 TOPOR A464 ARAMA DCT TEBUN TEBUN1A
Aircraft A388/J-SADE2E3FGHIJ3J4J5M1RWXY/LB1D1

Departure

Time 2026-05-04 20:05
Airport London Heathrow Airport (EGLL)

Arrival

Time N/A
Airport Singapore Changi Airport (WSSS)
Time Latitude Longitude Altitude Speed Heading
2026-05-04 19:32 51.46938 -0.44185 91 ft 0 kts 269°
2026-05-04 19:48 51.46938 -0.44182 91 ft 2 kts 269°
2026-05-04 19:48 51.46938 -0.44141 92 ft 4 kts 269°
2026-05-04 19:49 51.46939 -0.44106 94 ft 4 kts 254°
2026-05-04 19:49 51.46952 -0.44072 94 ft 4 kts 212°
2026-05-04 19:49 51.46975 -0.44059 93 ft 4 kts 181°
2026-05-04 19:49 51.46993 -0.44059 92 ft 0 kts 179°
2026-05-04 19:55 51.46992 -0.44059 91 ft 1 kts 179°
2026-05-04 19:55 51.46975 -0.44059 91 ft 4 kts 179°
2026-05-04 19:55 51.46931 -0.44058 92 ft 8 kts 179°
2026-05-04 19:55 51.46869 -0.44057 95 ft 10 kts 179°
2026-05-04 19:56 51.46795 -0.44056 95 ft 10 kts 179°
2026-05-04 19:56 51.46725 -0.44055 94 ft 10 kts 179°
2026-05-04 19:56 51.46678 -0.44070 93 ft 6 kts 230°
2026-05-04 19:56 51.46667 -0.44144 92 ft 8 kts 268°
2026-05-04 19:57 51.46667 -0.44262 91 ft 12 kts 270°
2026-05-04 19:57 51.46666 -0.44407 91 ft 14 kts 269°
2026-05-04 19:57 51.46664 -0.44565 91 ft 15 kts 269°
2026-05-04 19:57 51.46664 -0.44731 91 ft 15 kts 271°
2026-05-04 19:58 51.46665 -0.44906 91 ft 16 kts 269°
2026-05-04 19:58 51.46663 -0.45090 91 ft 17 kts 269°
2026-05-04 19:58 51.46662 -0.45281 92 ft 17 kts 270°
2026-05-04 19:58 51.46662 -0.45479 91 ft 18 kts 270°
2026-05-04 19:59 51.46662 -0.45682 93 ft 18 kts 270°
2026-05-04 19:59 51.46662 -0.45889 91 ft 19 kts 270°
2026-05-04 19:59 51.46661 -0.46098 93 ft 19 kts 269°
2026-05-04 19:59 51.46660 -0.46307 95 ft 19 kts 269°
2026-05-04 20:00 51.46658 -0.46517 95 ft 17 kts 269°
2026-05-04 20:00 51.46658 -0.46644 95 ft 12 kts 269°
2026-05-04 20:00 51.46657 -0.46781 94 ft 13 kts 270°
2026-05-04 20:00 51.46657 -0.46944 94 ft 16 kts 270°
2026-05-04 20:01 51.46657 -0.47139 94 ft 18 kts 270°
2026-05-04 20:01 51.46656 -0.47344 94 ft 19 kts 270°
2026-05-04 20:01 51.46655 -0.47554 94 ft 19 kts 270°
2026-05-04 20:01 51.46654 -0.47765 92 ft 19 kts 270°
2026-05-04 20:02 51.46654 -0.47926 91 ft 11 kts 270°
2026-05-04 20:02 51.46653 -0.48030 91 ft 9 kts 270°
2026-05-04 20:02 51.46653 -0.48156 91 ft 14 kts 270°
2026-05-04 20:02 51.46652 -0.48335 94 ft 18 kts 270°
2026-05-04 20:03 51.46652 -0.48550 91 ft 16 kts 270°
2026-05-04 20:03 51.46651 -0.48663 91 ft 6 kts 270°
2026-05-04 20:03 51.46650 -0.48711 93 ft 1 kts 249°
2026-05-04 20:03 51.46635 -0.48743 96 ft 4 kts 215°
2026-05-04 20:04 51.46581 -0.48772 95 ft 15 kts 199°
2026-05-04 20:04 51.46541 -0.48784 95 ft 12 kts 172°
2026-05-04 20:04 51.46480 -0.48699 94 ft 12 kts 91°
2026-05-04 20:04 51.46482 -0.48607 94 ft 15 kts 93°
2026-05-04 20:05 51.46482 -0.47715 94 ft 106 kts 89°
2026-05-04 20:05 51.46488 -0.46798 96 ft 140 kts 90°
2026-05-04 20:05 51.46504 -0.45083 289 ft 157 kts 85°
2026-05-04 20:05 51.46537 -0.43382 894 ft 150 kts 85°
2026-05-04 20:06 51.46533 -0.41692 1309 ft 160 kts 97°
2026-05-04 20:06 51.46112 -0.39984 1727 ft 165 kts 115°
2026-05-04 20:06 51.45490 -0.38378 1986 ft 178 kts 121°
2026-05-04 20:06 51.44776 -0.36661 2092 ft 189 kts 113°
2026-05-04 20:07 51.44321 -0.34663 2172 ft 194 kts 106°
2026-05-04 20:07 51.43870 -0.32577 2201 ft 204 kts 106°
2026-05-04 20:07 51.43397 -0.30336 2296 ft 222 kts 106°
2026-05-04 20:07 51.42915 -0.27890 2537 ft 241 kts 102°
2026-05-04 20:08 51.42549 -0.25185 2991 ft 251 kts 100°
2026-05-04 20:08 51.42178 -0.22422 3587 ft 257 kts 101°
2026-05-04 20:08 51.41791 -0.19601 4182 ft 262 kts 101°
2026-05-04 20:08 51.41393 -0.16722 4802 ft 267 kts 101°
2026-05-04 20:09 51.40990 -0.13803 5413 ft 270 kts 102°
2026-05-04 20:09 51.40577 -0.10861 6062 ft 273 kts 102°
2026-05-04 20:09 51.40155 -0.07882 6670 ft 277 kts 103°
2026-05-04 20:09 51.39727 -0.04863 7292 ft 279 kts 103°
2026-05-04 20:10 51.39293 -0.01810 7895 ft 282 kts 103°
2026-05-04 20:10 51.38856 0.01262 8550 ft 284 kts 103°
2026-05-04 20:10 51.38416 0.04358 9197 ft 287 kts 103°
2026-05-04 20:10 51.37970 0.07492 9806 ft 289 kts 103°
2026-05-04 20:11 51.37519 0.10647 10330 ft 295 kts 103°
2026-05-04 20:11 51.37044 0.13940 10484 ft 312 kts 103°
2026-05-04 20:11 51.36540 0.17415 10644 ft 328 kts 103°
2026-05-04 20:11 51.36013 0.21049 10879 ft 340 kts 103°
2026-05-04 20:12 51.35482 0.24749 11411 ft 342 kts 103°
2026-05-04 20:12 51.34947 0.28474 11942 ft 344 kts 103°
2026-05-04 20:12 51.34409 0.32215 12478 ft 346 kts 103°
2026-05-04 20:12 51.33867 0.35966 13026 ft 348 kts 103°
2026-05-04 20:13 51.33320 0.39744 13624 ft 349 kts 102°
2026-05-04 20:13 51.32772 0.43519 14107 ft 351 kts 103°
2026-05-04 20:13 51.32217 0.47331 14599 ft 352 kts 103°
2026-05-04 20:13 51.31660 0.51150 15086 ft 353 kts 103°
2026-05-04 20:14 51.31096 0.55006 15475 ft 358 kts 103°
2026-05-04 20:14 51.30525 0.58888 15878 ft 362 kts 103°
2026-05-04 20:14 51.29854 0.62742 16353 ft 362 kts 107°
2026-05-04 20:14 51.29136 0.66631 16865 ft 363 kts 107°
2026-05-04 20:15 51.28425 0.70528 17185 ft 368 kts 107°
2026-05-04 20:15 51.27705 0.74476 17610 ft 371 kts 107°
2026-05-04 20:15 51.26980 0.78444 18035 ft 373 kts 107°
2026-05-04 20:15 51.26238 0.82484 18027 ft 375 kts 107°
2026-05-04 20:16 51.25511 0.86431 18020 ft 374 kts 107°
2026-05-04 20:16 51.24766 0.90462 18070 ft 374 kts 108°
2026-05-04 20:16 51.24038 0.94399 18278 ft 376 kts 108°
2026-05-04 20:16 51.23294 0.98409 18620 ft 379 kts 107°
2026-05-04 20:17 51.22543 1.02451 18996 ft 381 kts 107°
2026-05-04 20:17 51.21785 1.06519 19358 ft 383 kts 107°
2026-05-04 20:17 51.21023 1.10607 19716 ft 385 kts 108°
2026-05-04 20:17 51.20255 1.14712 20038 ft 388 kts 108°
2026-05-04 20:18 51.19481 1.18836 20375 ft 390 kts 108°
2026-05-04 20:18 51.18700 1.22991 20731 ft 392 kts 108°
2026-05-04 20:18 51.17915 1.27168 21070 ft 394 kts 109°
2026-05-04 20:18 51.17121 1.31371 21385 ft 397 kts 109°
2026-05-04 20:19 51.16400 1.35630 21699 ft 400 kts 102°
2026-05-04 20:19 51.16036 1.40050 22017 ft 405 kts 96°
2026-05-04 20:19 51.15846 1.44536 22316 ft 407 kts 95°
2026-05-04 20:19 51.15639 1.49046 22671 ft 409 kts 95°
2026-05-04 20:20 51.15423 1.53581 22916 ft 413 kts 96°
2026-05-04 20:20 51.15199 1.58165 23240 ft 415 kts 95°
2026-05-04 20:20 51.14974 1.62741 23605 ft 416 kts 96°
2026-05-04 20:20 51.14746 1.67352 23833 ft 420 kts 96°
2026-05-04 20:21 51.14513 1.72001 24115 ft 421 kts 95°
2026-05-04 20:21 51.14280 1.76638 24455 ft 421 kts 96°
2026-05-04 20:21 51.13805 1.85985 24986 ft 425 kts 96°
2026-05-04 20:22 51.13563 1.90673 25292 ft 426 kts 96°
2026-05-04 20:22 51.13319 1.95379 25602 ft 427 kts 96°
2026-05-04 20:22 51.13073 2.00090 25950 ft 428 kts 96°
2026-05-04 20:22 51.12823 2.04836 26248 ft 431 kts 97°
2026-05-04 20:23 51.12570 2.09599 26566 ft 433 kts 97°
2026-05-04 20:23 51.12314 2.14374 26931 ft 434 kts 96°
2026-05-04 20:23 51.12055 2.19173 27238 ft 436 kts 97°
2026-05-04 20:23 51.11793 2.23994 27580 ft 438 kts 97°
2026-05-04 20:24 51.11528 2.28829 27926 ft 440 kts 97°
2026-05-04 20:24 51.11259 2.33700 28253 ft 442 kts 97°
2026-05-04 20:24 51.10987 2.38587 28615 ft 444 kts 97°
2026-05-04 20:24 51.10712 2.43479 29018 ft 445 kts 97°
2026-05-04 20:25 51.10435 2.48386 29335 ft 447 kts 97°
2026-05-04 20:25 51.10154 2.53328 29699 ft 449 kts 97°
2026-05-04 20:25 51.09870 2.58280 30053 ft 451 kts 97°
2026-05-04 20:25 51.09560 2.63189 30336 ft 453 kts 100°
2026-05-04 20:26 51.08945 2.68159 30602 ft 453 kts 107°
2026-05-04 20:26 51.08073 2.72926 30863 ft 455 kts 108°
2026-05-04 20:26 51.07173 2.77835 31147 ft 458 kts 108°
2026-05-04 20:26 51.06292 2.82698 31442 ft 460 kts 108°
2026-05-04 20:27 51.05401 2.87614 31719 ft 463 kts 108°
2026-05-04 20:27 51.04506 2.92540 31978 ft 465 kts 108°
2026-05-04 20:27 51.03604 2.97484 32229 ft 468 kts 108°
2026-05-04 20:27 51.02703 3.02402 32494 ft 471 kts 108°
2026-05-04 20:28 51.01783 3.07407 32731 ft 473 kts 108°
2026-05-04 20:28 51.00856 3.12438 32966 ft 476 kts 108°
2026-05-04 20:28 50.98957 3.22688 32988 ft 492 kts 108°
2026-05-04 20:29 50.97012 3.33145 32971 ft 495 kts 108°
2026-05-04 20:29 50.95055 3.43606 32972 ft 495 kts 109°
2026-05-04 20:30 50.93087 3.54063 32971 ft 495 kts 109°
2026-05-04 20:30 50.91110 3.64506 32974 ft 495 kts 109°
2026-05-04 20:31 50.89108 3.74932 32971 ft 495 kts 109°
2026-05-04 20:31 50.87092 3.85341 32961 ft 495 kts 110°
2026-05-04 20:32 50.85063 3.95767 32965 ft 495 kts 110°
2026-05-04 20:32 50.83023 4.06189 32961 ft 496 kts 110°
2026-05-04 20:33 50.80979 4.16589 32975 ft 496 kts 110°
2026-05-04 20:33 50.78924 4.26997 32971 ft 496 kts 110°
2026-05-04 20:34 50.76857 4.37399 32975 ft 496 kts 110°
2026-05-04 20:34 50.74783 4.47781 32977 ft 496 kts 110°
2026-05-04 20:35 50.72696 4.58172 32979 ft 496 kts 110°
2026-05-04 20:35 50.70646 4.68572 32964 ft 496 kts 110°
2026-05-04 20:36 50.68642 4.78984 32964 ft 496 kts 110°
2026-05-04 20:36 50.66616 4.89394 32963 ft 496 kts 110°
2026-05-04 20:37 50.64536 4.99764 32962 ft 496 kts 111°
2026-05-04 20:37 50.62408 5.10031 32962 ft 496 kts 111°
2026-05-04 20:38 50.60257 5.20418 32956 ft 496 kts 112°
2026-05-04 20:38 50.58125 5.30673 32960 ft 496 kts 112°
2026-05-04 20:39 50.55971 5.40985 32967 ft 497 kts 112°
2026-05-04 20:39 50.53806 5.51297 32967 ft 497 kts 112°
2026-05-04 20:40 50.51651 5.61609 32959 ft 498 kts 111°
2026-05-04 20:40 50.50191 5.72296 32961 ft 501 kts 106°
2026-05-04 20:41 50.48817 5.83045 32972 ft 503 kts 106°
2026-05-04 20:41 50.48116 5.88426 33342 ft 503 kts 106°
2026-05-04 20:41 50.47414 5.93794 33827 ft 501 kts 106°
2026-05-04 20:42 50.46711 5.99149 34225 ft 500 kts 106°
2026-05-04 20:42 50.46006 6.04493 34539 ft 500 kts 106°
2026-05-04 20:42 50.45298 6.09841 34822 ft 501 kts 106°
2026-05-04 20:42 50.44588 6.15189 35142 ft 501 kts 106°
2026-05-04 20:43 50.43875 6.20537 35464 ft 501 kts 106°
2026-05-04 20:43 50.43159 6.25889 35782 ft 501 kts 106°
2026-05-04 20:43 50.42442 6.31229 36094 ft 501 kts 106°
2026-05-04 20:43 50.41736 6.36581 36392 ft 502 kts 104°
2026-05-04 20:44 50.41265 6.42017 36673 ft 504 kts 100°
2026-05-04 20:44 50.40865 6.47481 36938 ft 505 kts 100°
2026-05-04 20:44 50.40038 6.58426 36955 ft 501 kts 100°
2026-05-04 20:45 50.39197 6.69271 36965 ft 503 kts 101°
2026-05-04 20:45 50.38341 6.80154 36970 ft 503 kts 101°
2026-05-04 20:46 50.37477 6.91027 36984 ft 503 kts 101°
2026-05-04 20:46 50.36603 7.01890 36988 ft 503 kts 101°
2026-05-04 20:47 50.35717 7.12774 36993 ft 504 kts 101°
2026-05-04 20:47 50.34821 7.23653 36999 ft 504 kts 101°
2026-05-04 20:48 50.33915 7.34538 37001 ft 504 kts 101°
2026-05-04 20:48 50.33008 7.45304 37009 ft 503 kts 101°
2026-05-04 20:49 50.32230 7.54431 37001 ft 503 kts 101°
2026-05-04 20:49 50.31298 7.65267 36999 ft 502 kts 101°
2026-05-04 20:50 50.30358 7.76070 36997 ft 501 kts 101°
2026-05-04 20:50 50.29408 7.86876 36980 ft 500 kts 102°
2026-05-04 20:51 50.28467 7.97667 36982 ft 500 kts 101°
2026-05-04 20:51 50.27575 8.08447 36974 ft 500 kts 101°
2026-05-04 20:52 50.26671 8.19229 36968 ft 500 kts 101°
2026-05-04 20:52 50.25752 8.29988 36946 ft 500 kts 101°
2026-05-04 20:53 50.24822 8.40725 36957 ft 500 kts 101°
2026-05-04 20:53 50.23881 8.51478 36976 ft 500 kts 102°
2026-05-04 20:54 50.22928 8.62242 36981 ft 500 kts 102°
2026-05-04 20:54 50.21966 8.73004 36984 ft 501 kts 102°
2026-05-04 20:55 50.20992 8.83773 36985 ft 501 kts 102°
2026-05-04 20:55 50.20007 8.94551 36987 ft 501 kts 102°
2026-05-04 20:56 50.19013 9.05314 36987 ft 501 kts 102°
2026-05-04 20:56 50.18010 9.16074 36985 ft 501 kts 102°
2026-05-04 20:57 50.17003 9.26757 36973 ft 501 kts 102°
2026-05-04 20:57 50.15980 9.37504 36977 ft 501 kts 102°
2026-05-04 20:58 50.14945 9.48263 36985 ft 502 kts 102°
2026-05-04 20:58 50.13901 9.59009 36989 ft 502 kts 102°
2026-05-04 20:59 50.12846 9.69766 37000 ft 502 kts 102°
2026-05-04 20:59 50.11781 9.80509 36988 ft 502 kts 102°
2026-05-04 21:00 50.10705 9.91261 36990 ft 502 kts 102°
2026-05-04 21:00 50.09621 10.01996 36976 ft 502 kts 102°
2026-05-04 21:01 50.08525 10.12742 36963 ft 502 kts 102°
2026-05-04 21:01 50.07424 10.23460 36968 ft 502 kts 102°
2026-05-04 21:02 50.06328 10.34184 36963 ft 502 kts 102°
2026-05-04 21:02 50.05216 10.45052 36953 ft 515 kts 102°
2026-05-04 21:03 50.04073 10.56132 36928 ft 512 kts 102°
2026-05-04 21:03 50.03516 10.61529 36948 ft 499 kts 102°
2026-05-04 21:03 50.02963 10.66833 36945 ft 498 kts 102°
2026-05-04 21:04 50.01831 10.77547 36941 ft 503 kts 102°
2026-05-04 21:04 50.00724 10.87957 36937 ft 503 kts 103°
2026-05-04 21:05 49.99583 10.98606 36938 ft 503 kts 103°
2026-05-04 21:05 49.98417 11.09366 36949 ft 507 kts 102°
2026-05-04 21:06 49.97223 11.20134 36975 ft 509 kts 105°
2026-05-04 21:06 49.95255 11.30712 36976 ft 507 kts 112°
2026-05-04 21:07 49.93040 11.41068 36940 ft 501 kts 111°
2026-05-04 21:07 49.91080 11.51406 36945 ft 499 kts 108°
2026-05-04 21:08 49.89233 11.61776 36957 ft 499 kts 109°
2026-05-04 21:08 49.87727 11.72298 36968 ft 503 kts 100°
2026-05-04 21:09 49.86813 11.83050 36976 ft 503 kts 100°
2026-05-04 21:09 49.85868 11.93660 36969 ft 503 kts 100°
2026-05-04 21:10 49.84908 12.04303 36972 ft 503 kts 100°
2026-05-04 21:10 49.83937 12.15035 36971 ft 503 kts 101°
2026-05-04 21:11 49.82949 12.25833 36957 ft 503 kts 101°
2026-05-04 21:11 49.81964 12.36539 36953 ft 502 kts 100°
2026-05-04 21:12 49.80816 12.47191 36963 ft 501 kts 107°
2026-05-04 21:12 49.78805 12.57493 36962 ft 499 kts 110°
2026-05-04 21:13 49.76749 12.67744 36960 ft 499 kts 110°
2026-05-04 21:13 49.74693 12.78016 36950 ft 499 kts 110°
2026-05-04 21:14 49.72625 12.88268 36951 ft 500 kts 110°
2026-05-04 21:14 49.70541 12.98524 36954 ft 501 kts 110°
2026-05-04 21:15 49.68459 13.08717 36960 ft 501 kts 110°
2026-05-04 21:15 49.66350 13.18989 36953 ft 501 kts 110°
2026-05-04 21:16 49.64245 13.29188 36949 ft 500 kts 110°
2026-05-04 21:16 49.62124 13.39411 36948 ft 500 kts 110°
2026-05-04 21:17 49.59999 13.49606 36947 ft 500 kts 110°
2026-05-04 21:17 49.57864 13.59790 36934 ft 499 kts 110°
2026-05-04 21:18 49.55748 13.69837 36941 ft 499 kts 110°
2026-05-04 21:18 49.53585 13.80057 36947 ft 500 kts 110°
2026-05-04 21:19 49.51421 13.90232 36949 ft 500 kts 110°
2026-05-04 21:19 49.49246 14.00402 36943 ft 500 kts 110°
2026-05-04 21:20 49.47062 14.10562 36943 ft 501 kts 110°
2026-05-04 21:20 49.44864 14.20743 36947 ft 502 kts 110°
2026-05-04 21:21 49.42659 14.30902 36949 ft 502 kts 111°
2026-05-04 21:21 49.40440 14.41079 36952 ft 502 kts 111°
2026-05-04 21:22 49.38211 14.51245 36937 ft 502 kts 110°
2026-05-04 21:22 49.35972 14.61414 36935 ft 503 kts 111°
2026-05-04 21:23 49.33725 14.71567 36935 ft 503 kts 111°
2026-05-04 21:23 49.31470 14.81706 36935 ft 503 kts 111°
2026-05-04 21:24 49.29213 14.91806 36941 ft 502 kts 110°
2026-05-04 21:24 49.26945 15.01906 36937 ft 501 kts 111°
2026-05-04 21:25 49.24672 15.11984 36937 ft 500 kts 111°
2026-05-04 21:25 49.22393 15.22036 36925 ft 499 kts 111°
2026-05-04 21:26 49.20112 15.32047 36933 ft 499 kts 110°
2026-05-04 21:26 49.17822 15.42053 36928 ft 498 kts 111°
2026-05-04 21:27 49.15524 15.52049 36929 ft 498 kts 111°
2026-05-04 21:27 49.13221 15.62018 36927 ft 498 kts 111°
2026-05-04 21:28 49.10905 15.71993 36930 ft 498 kts 111°
2026-05-04 21:28 49.08585 15.81946 36932 ft 498 kts 111°
2026-05-04 21:29 49.06251 15.91906 36936 ft 499 kts 111°
2026-05-04 21:29 49.03910 16.01853 36962 ft 499 kts 111°
2026-05-04 21:30 49.01557 16.11803 36951 ft 499 kts 111°
2026-05-04 21:30 48.99197 16.21744 36951 ft 500 kts 111°
2026-05-04 21:31 48.95633 16.36668 36948 ft 500 kts 111°
2026-05-04 21:32 48.93649 16.44929 36950 ft 500 kts 111°
2026-05-04 21:32 48.90849 16.56535 36956 ft 501 kts 111°
2026-05-04 21:33 48.88443 16.66463 36955 ft 501 kts 111°
2026-05-04 21:33 48.86434 16.74717 36958 ft 501 kts 111°
2026-05-04 21:34 48.84011 16.84634 36955 ft 501 kts 111°
2026-05-04 21:34 48.81582 16.94531 36956 ft 501 kts 111°
2026-05-04 21:35 48.79149 17.04430 36962 ft 500 kts 111°
2026-05-04 21:35 48.76336 17.14052 36955 ft 499 kts 117°
2026-05-04 21:36 48.73317 17.23531 36969 ft 499 kts 116°
2026-05-04 21:36 48.70315 17.33026 36975 ft 499 kts 116°
2026-05-04 21:37 48.67300 17.42490 36976 ft 499 kts 116°
2026-05-04 21:37 48.64270 17.51950 36977 ft 500 kts 116°
2026-05-04 21:38 48.61233 17.61397 36982 ft 500 kts 116°
2026-05-04 21:38 48.58192 17.70818 37001 ft 499 kts 116°
2026-05-04 21:39 48.55161 17.80175 36989 ft 499 kts 116°
2026-05-04 21:39 48.52098 17.89598 36983 ft 499 kts 116°
2026-05-04 21:40 48.49032 17.98993 36990 ft 499 kts 116°
2026-05-04 21:40 48.45959 18.08373 37002 ft 499 kts 116°
2026-05-04 21:41 48.42879 18.17744 37002 ft 499 kts 116°
2026-05-04 21:41 48.39792 18.27100 37034 ft 499 kts 116°
2026-05-04 21:42 48.36697 18.36445 37043 ft 499 kts 116°
2026-05-04 21:42 48.33594 18.45780 37022 ft 499 kts 116°
2026-05-04 21:43 48.30490 18.55085 37027 ft 498 kts 116°
2026-05-04 21:43 48.27375 18.64391 37028 ft 498 kts 116°
2026-05-04 21:44 48.24254 18.73678 37039 ft 499 kts 116°
2026-05-04 21:44 48.21125 18.82955 37040 ft 498 kts 116°
2026-05-04 21:45 48.17991 18.92214 37039 ft 498 kts 116°
2026-05-04 21:45 48.14852 19.01458 37056 ft 498 kts 116°
2026-05-04 21:46 48.11708 19.10681 37061 ft 497 kts 116°
2026-05-04 21:46 48.08576 19.19836 37044 ft 497 kts 116°
2026-05-04 21:47 48.05469 19.29068 37037 ft 497 kts 114°
2026-05-04 21:47 48.02694 19.38515 37043 ft 496 kts 112°
2026-05-04 21:48 47.99923 19.47957 37045 ft 496 kts 113°
2026-05-04 21:48 47.97101 19.57365 37048 ft 497 kts 114°
2026-05-04 21:49 47.94259 19.66762 37042 ft 497 kts 114°
2026-05-04 21:49 47.91409 19.76146 37041 ft 497 kts 114°
2026-05-04 21:50 47.88550 19.85525 37045 ft 497 kts 114°
2026-05-04 21:50 47.85687 19.94886 37053 ft 497 kts 114°
2026-05-04 21:51 47.82813 20.04248 37051 ft 497 kts 114°
2026-05-04 21:51 47.79936 20.13585 37050 ft 497 kts 114°
2026-05-04 21:52 47.77048 20.22920 37052 ft 497 kts 114°
2026-05-04 21:52 47.74154 20.32240 37053 ft 497 kts 114°
2026-05-04 21:53 47.71253 20.41552 37055 ft 497 kts 114°
2026-05-04 21:53 47.68345 20.50848 37051 ft 497 kts 114°
2026-05-04 21:54 47.65429 20.60134 37058 ft 497 kts 114°
2026-05-04 21:54 47.62505 20.69414 37046 ft 496 kts 114°
2026-05-04 21:55 47.59577 20.78673 37048 ft 496 kts 114°
2026-05-04 21:55 47.56639 20.87931 37048 ft 496 kts 114°
2026-05-04 21:56 47.53699 20.97158 37050 ft 496 kts 114°
2026-05-04 21:56 47.50764 21.06338 37057 ft 496 kts 114°
2026-05-04 21:57 47.47805 21.15558 37059 ft 496 kts 114°
2026-05-04 21:57 47.44838 21.24771 37058 ft 497 kts 114°
2026-05-04 21:58 47.41864 21.33971 37070 ft 496 kts 114°
2026-05-04 21:58 47.38884 21.43155 37070 ft 496 kts 114°
2026-05-04 21:59 47.35903 21.52313 37067 ft 496 kts 114°
2026-05-04 21:59 47.32909 21.61475 37072 ft 495 kts 114°
2026-05-04 22:00 47.29910 21.70620 37067 ft 495 kts 114°
2026-05-04 22:00 47.26909 21.79744 37070 ft 495 kts 114°
2026-05-04 22:01 47.23657 21.88669 37075 ft 496 kts 121°
2026-05-04 22:01 47.19799 21.97104 37071 ft 497 kts 122°
2026-05-04 22:02 47.15962 22.05546 37073 ft 497 kts 122°
2026-05-04 22:02 47.12121 22.14003 37076 ft 498 kts 122°
2026-05-04 22:03 47.08269 22.22443 37075 ft 498 kts 122°
2026-05-04 22:03 47.04407 22.30868 37104 ft 498 kts 122°
2026-05-04 22:04 47.00527 22.39304 37104 ft 499 kts 122°
2026-05-04 22:04 46.96644 22.47724 37107 ft 499 kts 122°
2026-05-04 22:05 46.92754 22.56131 37116 ft 499 kts 122°
2026-05-04 22:05 46.88857 22.64528 37133 ft 499 kts 122°
2026-05-04 22:06 46.84953 22.72916 37124 ft 499 kts 122°
2026-05-04 22:06 46.81051 22.81275 37129 ft 498 kts 122°
2026-05-04 22:07 46.77169 22.89564 37135 ft 498 kts 122°
2026-05-04 22:07 46.73237 22.97938 37134 ft 497 kts 122°
2026-05-04 22:08 46.69347 23.06194 37134 ft 497 kts 123°
2026-05-04 22:08 46.65425 23.14495 37125 ft 497 kts 123°
2026-05-04 22:09 46.61502 23.22774 37128 ft 498 kts 123°
2026-05-04 22:09 46.57565 23.31056 37123 ft 498 kts 123°
2026-05-04 22:10 46.53624 23.39323 37117 ft 498 kts 123°
2026-05-04 22:10 46.49672 23.47589 37112 ft 498 kts 123°
2026-05-04 22:11 46.45718 23.55835 37102 ft 498 kts 123°
2026-05-04 22:11 46.41752 23.64080 37091 ft 498 kts 123°
2026-05-04 22:12 46.37780 23.72313 37089 ft 498 kts 123°
2026-05-04 22:12 46.33802 23.80536 37086 ft 499 kts 123°
2026-05-04 22:13 46.29815 23.88752 37088 ft 499 kts 123°
2026-05-04 22:13 46.25825 23.96952 37083 ft 498 kts 123°
2026-05-04 22:14 46.21833 24.05131 37079 ft 498 kts 123°
2026-05-04 22:14 46.17834 24.13300 37071 ft 498 kts 123°
2026-05-04 22:15 46.13832 24.21452 37072 ft 498 kts 123°
2026-05-04 22:15 46.09829 24.29583 37074 ft 498 kts 123°
2026-05-04 22:16 46.05815 24.37710 37071 ft 498 kts 123°
2026-05-04 22:16 46.01800 24.45820 37072 ft 498 kts 123°
2026-05-04 22:17 45.97777 24.53919 37062 ft 498 kts 123°
2026-05-04 22:17 45.93750 24.62004 37080 ft 497 kts 123°
2026-05-04 22:18 45.89745 24.70024 37083 ft 497 kts 124°
2026-05-04 22:18 45.85712 24.78075 37098 ft 497 kts 124°
2026-05-04 22:19 45.81663 24.86135 37076 ft 497 kts 124°
2026-05-04 22:19 45.77618 24.94165 37071 ft 497 kts 124°
2026-05-04 22:20 45.73568 25.02181 37083 ft 497 kts 124°
2026-05-04 22:20 45.70199 25.08831 37099 ft 497 kts 124°
2026-05-04 22:21 45.65456 25.18170 37088 ft 497 kts 124°
2026-05-04 22:21 45.62076 25.24805 37086 ft 497 kts 124°
2026-05-04 22:22 45.58008 25.32771 37083 ft 496 kts 124°
2026-05-04 22:22 45.53933 25.40728 37083 ft 497 kts 124°
2026-05-04 22:23 45.49848 25.48682 37080 ft 497 kts 124°
2026-05-04 22:23 45.45761 25.56618 37083 ft 497 kts 124°
2026-05-04 22:24 45.41662 25.64554 37083 ft 497 kts 124°
2026-05-04 22:24 45.37561 25.72471 37085 ft 497 kts 124°
2026-05-04 22:25 45.33449 25.80389 37072 ft 498 kts 124°
2026-05-04 22:25 45.29336 25.88288 37078 ft 497 kts 125°
2026-05-04 22:26 45.25215 25.96181 37078 ft 498 kts 125°
2026-05-04 22:26 45.21086 26.04065 37071 ft 498 kts 125°
2026-05-04 22:27 45.16954 26.11934 37067 ft 498 kts 126°
2026-05-04 22:27 45.12843 26.19741 37066 ft 498 kts 126°
2026-05-04 22:28 45.08702 26.27585 37057 ft 498 kts 126°
2026-05-04 22:28 45.04527 26.35482 37056 ft 497 kts 126°
2026-05-04 22:29 45.00408 26.43248 37055 ft 497 kts 126°
2026-05-04 22:29 44.96218 26.51022 37054 ft 497 kts 126°
2026-05-04 22:30 44.92120 26.58874 37055 ft 496 kts 126°
2026-05-04 22:30 44.87979 26.66729 37054 ft 496 kts 126°
2026-05-04 22:31 44.83879 26.74447 37052 ft 495 kts 126°
2026-05-04 22:31 44.79741 26.82209 37059 ft 494 kts 126°
2026-05-04 22:32 44.75610 26.89938 37054 ft 494 kts 126°
2026-05-04 22:32 44.71480 26.97646 37042 ft 493 kts 126°
2026-05-04 22:33 44.67343 27.05344 37045 ft 493 kts 126°
2026-05-04 22:33 44.63207 27.13022 37046 ft 493 kts 126°
2026-05-04 22:34 44.59064 27.20692 37047 ft 493 kts 126°
2026-05-04 22:34 44.54912 27.28359 37048 ft 493 kts 126°
2026-05-04 22:35 44.50754 27.36014 37049 ft 494 kts 126°
2026-05-04 22:35 44.46589 27.43663 37052 ft 494 kts 126°
2026-05-04 22:36 44.42418 27.51302 37053 ft 494 kts 126°
2026-05-04 22:36 44.38240 27.58935 37056 ft 494 kts 126°
2026-05-04 22:37 44.34059 27.66552 37069 ft 494 kts 126°
2026-05-04 22:37 44.29873 27.74158 37057 ft 494 kts 126°
2026-05-04 22:38 44.25687 27.81745 37054 ft 494 kts 126°
2026-05-04 22:38 44.21492 27.89328 37069 ft 494 kts 126°
2026-05-04 22:39 44.17292 27.96902 37066 ft 494 kts 126°
2026-05-04 22:39 44.13090 28.04457 37066 ft 493 kts 126°
2026-05-04 22:40 44.08914 28.11947 37064 ft 493 kts 126°
2026-05-04 22:40 44.04701 28.19482 37063 ft 493 kts 126°
2026-05-04 22:41 44.00488 28.27001 37060 ft 493 kts 126°
2026-05-04 22:41 43.96268 28.34511 37063 ft 493 kts 126°
2026-05-04 22:42 43.92044 28.42009 37047 ft 493 kts 125°
2026-05-04 22:42 43.87816 28.49494 37049 ft 493 kts 125°
2026-05-04 22:43 43.83576 28.56983 37056 ft 494 kts 125°
2026-05-04 22:43 43.79329 28.64464 37067 ft 494 kts 126°
2026-05-04 22:44 43.75067 28.71951 37047 ft 495 kts 125°
2026-05-04 22:44 43.70800 28.79435 37052 ft 496 kts 125°
2026-05-04 22:45 43.66651 28.87032 37049 ft 495 kts 122°
2026-05-04 22:45 43.60658 28.98665 37054 ft 496 kts 122°
2026-05-04 22:46 43.56617 29.06383 37053 ft 497 kts 123°
2026-05-04 22:46 43.52558 29.14089 37051 ft 497 kts 123°
2026-05-04 22:47 43.48489 29.21792 37041 ft 497 kts 123°
2026-05-04 22:47 43.44444 29.29432 37040 ft 497 kts 123°
2026-05-04 22:48 43.40359 29.37126 37040 ft 498 kts 123°
2026-05-04 22:48 43.36275 29.44799 37040 ft 498 kts 123°
2026-05-04 22:49 43.32180 29.52474 37044 ft 498 kts 123°
2026-05-04 22:49 43.28078 29.60140 37045 ft 498 kts 123°
2026-05-04 22:50 43.23974 29.67792 37035 ft 498 kts 123°
2026-05-04 22:50 43.19863 29.75435 37026 ft 498 kts 123°
2026-05-04 22:51 43.15746 29.83071 37001 ft 498 kts 123°
2026-05-04 22:51 43.11623 29.90698 36999 ft 498 kts 123°
2026-05-04 22:52 43.07496 29.98311 37015 ft 498 kts 123°
2026-05-04 22:52 43.03363 30.05919 37007 ft 498 kts 123°
2026-05-04 22:53 42.99230 30.13504 37008 ft 498 kts 123°
2026-05-04 22:53 42.95090 30.21085 37023 ft 498 kts 123°
2026-05-04 22:54 42.90942 30.28660 37010 ft 497 kts 123°
2026-05-04 22:54 42.86801 30.36204 36999 ft 497 kts 123°
2026-05-04 22:55 42.82655 30.43738 36993 ft 496 kts 123°
2026-05-04 22:55 42.78540 30.51196 36989 ft 496 kts 123°
2026-05-04 22:56 42.74975 30.59113 36983 ft 487 kts 109°
2026-05-04 22:56 42.73041 30.67834 36967 ft 478 kts 95°
2026-05-04 22:57 42.72159 30.76767 36971 ft 477 kts 94°
2026-05-04 22:57 42.71251 30.85696 36973 ft 476 kts 94°
2026-05-04 22:58 42.70332 30.94615 36970 ft 476 kts 94°
2026-05-04 22:58 42.69408 31.03529 36968 ft 476 kts 94°
2026-05-04 22:59 42.68477 31.12437 36961 ft 477 kts 94°
2026-05-04 22:59 42.67538 31.21358 36954 ft 477 kts 94°
2026-05-04 23:00 42.66593 31.30267 36963 ft 477 kts 94°
2026-05-04 23:00 42.65640 31.39186 36962 ft 477 kts 94°
2026-05-04 23:01 42.64681 31.48094 36972 ft 477 kts 95°
2026-05-04 23:01 42.63714 31.57003 36947 ft 476 kts 95°
2026-05-04 23:02 42.62742 31.65890 36945 ft 476 kts 95°
2026-05-04 23:02 42.61764 31.74778 36935 ft 476 kts 95°
2026-05-04 23:03 42.60784 31.83613 36956 ft 476 kts 95°
2026-05-04 23:03 42.59794 31.92485 36940 ft 476 kts 95°
2026-05-04 23:04 42.58796 32.01360 36934 ft 475 kts 95°
2026-05-04 23:04 42.57808 32.10225 36932 ft 475 kts 95°
2026-05-04 23:05 42.56797 32.19081 36939 ft 475 kts 95°
2026-05-04 23:05 42.55776 32.27948 36930 ft 475 kts 95°
2026-05-04 23:06 42.54752 32.36798 36933 ft 475 kts 96°
2026-05-04 23:06 42.53720 32.45653 36938 ft 475 kts 96°
2026-05-04 23:07 42.52681 32.54503 36935 ft 475 kts 96°
2026-05-04 23:07 42.51635 32.63352 36936 ft 475 kts 96°
2026-05-04 23:08 42.50583 32.72198 36936 ft 475 kts 96°
2026-05-04 23:08 42.49524 32.81031 36935 ft 475 kts 96°
2026-05-04 23:09 42.48640 32.88367 36934 ft 475 kts 96°
2026-05-04 23:09 42.47389 32.98679 36933 ft 475 kts 96°
2026-05-04 23:10 42.46493 33.06012 36935 ft 475 kts 96°
2026-05-04 23:10 42.45410 33.14833 36936 ft 475 kts 96°
2026-05-04 23:11 42.44316 33.23664 36941 ft 475 kts 96°
2026-05-04 23:11 42.43215 33.32490 36936 ft 476 kts 97°
2026-05-04 23:12 42.42106 33.41324 36937 ft 476 kts 97°
2026-05-04 23:12 42.40991 33.50157 36946 ft 476 kts 97°
2026-05-04 23:13 42.39871 33.58976 36947 ft 476 kts 97°
2026-05-04 23:13 42.38743 33.67804 36946 ft 476 kts 97°
2026-05-04 23:14 42.37610 33.76618 36944 ft 475 kts 97°
2026-05-04 23:14 42.36470 33.85421 36942 ft 475 kts 97°
2026-05-04 23:15 42.35327 33.94209 36930 ft 475 kts 97°
2026-05-04 23:15 42.34179 34.03011 36920 ft 476 kts 97°
2026-05-04 23:16 42.33023 34.11814 36925 ft 476 kts 98°
2026-05-04 23:16 42.31858 34.20626 36930 ft 477 kts 98°
2026-05-04 23:17 42.30685 34.29447 36936 ft 478 kts 98°
2026-05-04 23:17 42.29503 34.38286 36925 ft 479 kts 98°
2026-05-04 23:18 42.28307 34.47159 36936 ft 480 kts 98°
2026-05-04 23:18 42.27104 34.56028 36949 ft 481 kts 98°
2026-05-04 23:19 42.25891 34.64912 36951 ft 482 kts 99°
2026-05-04 23:19 42.24670 34.73806 36943 ft 483 kts 99°
2026-05-04 23:20 42.23447 34.82659 36946 ft 483 kts 99°
2026-05-04 23:20 42.22205 34.91571 36945 ft 484 kts 99°
2026-05-04 23:21 42.20954 35.00491 36951 ft 484 kts 99°
2026-05-04 23:21 42.19696 35.09415 36941 ft 484 kts 100°
2026-05-04 23:22 42.18456 35.18162 36940 ft 485 kts 100°
2026-05-04 23:22 42.17165 35.27208 36941 ft 485 kts 100°
2026-05-04 23:23 42.15885 35.36132 36947 ft 485 kts 100°
2026-05-04 23:23 42.14597 35.45062 36941 ft 486 kts 100°
2026-05-04 23:24 42.13304 35.53987 36945 ft 486 kts 100°
2026-05-04 23:24 42.12006 35.62917 36946 ft 486 kts 101°
2026-05-04 23:25 42.10698 35.71850 36946 ft 486 kts 101°
2026-05-04 23:25 42.09384 35.80778 36940 ft 486 kts 101°
2026-05-04 23:26 42.08061 35.89712 36942 ft 487 kts 101°
2026-05-04 23:26 42.06730 35.98644 36937 ft 487 kts 101°
2026-05-04 23:27 42.05394 36.07568 36941 ft 487 kts 101°
2026-05-04 23:27 42.04048 36.16508 36939 ft 487 kts 101°
2026-05-04 23:28 42.02695 36.25437 36942 ft 488 kts 101°
2026-05-04 23:28 42.01334 36.34378 36939 ft 488 kts 101°
2026-05-04 23:29 41.99973 36.43263 36935 ft 488 kts 101°
2026-05-04 23:29 41.98597 36.52203 36942 ft 488 kts 102°
2026-05-04 23:30 41.97213 36.61139 36944 ft 488 kts 102°
2026-05-04 23:30 41.95823 36.70074 36943 ft 488 kts 102°
2026-05-04 23:31 41.94426 36.78997 36942 ft 488 kts 102°
2026-05-04 23:31 41.93023 36.87917 36926 ft 489 kts 102°
2026-05-04 23:32 41.91609 36.96853 36925 ft 489 kts 102°
2026-05-04 23:32 41.89954 37.05703 36927 ft 489 kts 109°
2026-05-04 23:33 41.87364 37.14142 36926 ft 489 kts 113°
2026-05-04 23:33 41.84720 37.22548 36928 ft 490 kts 113°
2026-05-04 23:34 41.82064 37.30981 36904 ft 490 kts 113°
2026-05-04 23:34 41.79402 37.39392 36938 ft 490 kts 113°
2026-05-04 23:35 41.76733 37.47799 36938 ft 491 kts 114°
2026-05-04 23:35 41.74055 37.56201 36927 ft 491 kts 114°
2026-05-04 23:36 41.71373 37.64592 36939 ft 490 kts 114°
2026-05-04 23:36 41.68681 37.72990 36928 ft 490 kts 114°
2026-05-04 23:37 41.65992 37.81360 36927 ft 490 kts 114°
2026-05-04 23:37 41.63290 37.89745 36932 ft 491 kts 115°
2026-05-04 23:38 41.60580 37.98123 36924 ft 491 kts 115°
2026-05-04 23:38 41.57864 38.06499 36908 ft 492 kts 114°
2026-05-04 23:39 41.55141 38.14868 36911 ft 492 kts 115°